Regional Weather Roundup
Issued by NWS

Home | Current Version | Previous Version | Text Only | Print | Product List | Glossary On
Versions: 1 2 3 4 5 6 7 8 9 10 11 12 13 14 15 16 17 18 19 20 21 22 23 24 25 26 27 28 29 30 31 32 33 34 35 36 37 38 39 40 41 42 43 44 45 46 47 48 49 50
000
ASUS46 KSEW 012310
RWRWA

WASHINGTON REGIONAL WEATHER ROUNDUP
NATIONAL WEATHER SERVICE SEATTLE WA
300 PM PST SUN MAR 01 2015

NOTE:"FAIR" INDICATES FEW OR NO CLOUDS BELOW 12,000 FEET WITH NO
SIGNIFICANT WEATHER AND/OR OBSTRUCTIONS TO VISIBILITY.

WAZ505-507>509-020000-
SEATTLE, TACOMA, EVERETT, AND VICINITY

CITY           SKY/WX    TMP DP  RH WIND       PRES   REMARKS
EVERETT        CLOUDY    48  31  51 W6        30.07F
BOEING FIELD   CLOUDY    54  26  34 S6        30.07F
RENTON         CLOUDY    55  24  30 S8        30.07F
SEATAC AIRPORT CLOUDY    51  26  37 SW7       30.07F
JBLM-MCCHORD   CLOUDY    55  30  37 SW10      30.06F
PUYALLUP       FAIR      55  27  33 CALM      30.06F
BREMERTON      CLOUDY    52  32  46 S3        30.08F
JBLM-FT LEWIS  CLOUDY    56  30  38 SW8       30.05F
TACOMA NARROWS CLOUDY    52  31  44 S6        30.07F
$$

WAZ001-503-506-510-514-515-020000-
NORTH INTERIOR

CITY           SKY/WX    TMP DP  RH WIND       PRES   REMARKS
BELLINGHAM     CLOUDY    48  30  49 S3        30.07F
FRIDAY HARBOR  CLOUDY    48  34  58 E5        30.09F
EASTSOUND      CLOUDY    45  37  76 CALM      30.07F
PORT ANGELES   CLOUDY    48  38  68 CALM      30.08F
NAS WHIDBEY    CLOUDY    50  33  52 NW3       30.09F
ARLINGTON      CLOUDY    52  30  43 S3        30.08F
BURLINGTON     MOSUNNY   50  32  50 SW5       30.09F
$$

WAZ020-022-039-040-504-511-512-020000-
SOUTHWEST INTERIOR

CITY           SKY/WX    TMP DP  RH WIND       PRES   REMARKS
SHELTON        CLOUDY    53  35  50 SW12      30.04F
OLYMPIA        CLOUDY    55  24  30 SW12      30.06F
CHEHALIS       FAIR      59  32  36 VRB3      30.06F
KELSO          PTSUNNY   57  27  30 CALM      30.09F
VANCOUVER      MOSUNNY   56  18  22 CALM      30.07F
SCAPPOOSE, OR  MOSUNNY   56  16  20 S6        30.06F
PORTLAND, OR   CLOUDY    57  23  26 CALM      30.08F
$$

WAZ021-516-517-020000-
WASHINGTON COAST

CITY           SKY/WX    TMP DP  RH WIND       PRES   REMARKS
FORKS          CLOUDY    49  39  68 W6        30.09F
HOQUIAM        CLOUDY    51  42  71 SW10      30.09F
ASTORIA, OR    PTSUNNY   52  41  66 W12       30.10F
$$

WAZ019-023-024-040-518-519-020000-
CASCADE MOUNTAINS AND COLUMBIA GORGE

CITY           SKY/WX    TMP DP  RH WIND       PRES   REMARKS
TROUTDALE, OR  SUNNY     56  27  32 W8        30.06F
THE DALLES, OR SUNNY     56  16  20 VRB5      30.07F
$$

WAZ026-027-041>044-520-521-020000-
EAST SLOPES

CITY           SKY/WX    TMP DP  RH WIND       PRES   REMARKS
OMAK           PTSUNNY   48  18  30 S14G23    30.05F
WENATCHEE      PTSUNNY   47  24  40 E8        30.05F
ELLENSBURG     PTSUNNY   51  18  27 S3        30.03F
YAKIMA         MOSUNNY   54  21  27 E6        30.06F
$$

WAZ028-034-035-020000-
COLUMBIA BASIN

CITY           SKY/WX    TMP DP  RH WIND       PRES   REMARKS
EPHRATA        PTSUNNY   48  20  32 S8        30.06F
MOSES LAKE     MOSUNNY   49  15  25 S8        30.08F
PASCO          MOSUNNY   51  15  23 VRB5      30.11F
HERMISTON, OR  SUNNY     51  17  26 VRB5      30.09F
$$

WAZ036>038-020000-
NORTHEAST WASHINGTON

CITY           SKY/WX    TMP DP  RH WIND       PRES   REMARKS
SPOKANE GEIGER PTSUNNY   43  10  26 S3        30.06F
SPOKANE FELTS  CLOUDY    45  10  24 CALM      30.08F
FAIRCHILD AFB  PTSUNNY   44  12  27 VRB3      30.06F
COEURDALENE,ID PTSUNNY   43   9  24 CALM      30.06F
DEER PARK      CLOUDY    41   9  26 CALM      30.08F
$$

WAZ029>033-020000-
SOUTHEAST WASHINGTON

CITY           SKY/WX    TMP DP  RH WIND       PRES   REMARKS
PULLMAN        MOSUNNY   43  13  29 CALM      30.07F
LEWISTON, ID   MOSUNNY   48  18  30 VRB3      30.08F
WALLA WALLA    SUNNY     51  12  21 CALM      30.08F
PENDLETON, OR  SUNNY     50  16  25 W7        30.06F
$$



USA.gov is the U.S. government's official web portal to all federal, state and local government web resources and services.